TimeCST,TemperatureF,Dew PointF,Humidity,Sea Level PressureIn,VisibilityMPH,Wind Direction,Wind SpeedMPH,Gust SpeedMPH,PrecipitationIn,Events,Conditions,WindDirDegrees,DateUTC
12:15 AM,10.4,6.8,85,29.48,10.0,North,17.3,26.5,N/A,,Overcast,350,2013-01-12 06:15:00
12:35 AM,10.4,5.0,79,29.48,10.0,North,17.3,-,N/A,,Mostly Cloudy,350,2013-01-12 06:35:00
12:55 AM,10.4,6.8,85,29.48,8.0,North,20.7,24.2,N/A,,Overcast,350,2013-01-12 06:55:00
1:15 AM,10.4,6.8,85,29.48,4.0,North,20.7,25.3,N/A,,Overcast,350,2013-01-12 07:15:00
1:35 AM,10.4,5.0,79,29.49,5.0,North,16.1,-,N/A,,Overcast,350,2013-01-12 07:35:00
1:55 AM,8.6,3.2,79,29.50,4.0,North,16.1,25.3,N/A,,Overcast,350,2013-01-12 07:55:00
2:15 AM,8.6,3.2,79,29.52,2.0,NNW,15.0,-,N/A,,Overcast,340,2013-01-12 08:15:00
2:35 AM,8.6,5.0,85,29.54,2.0,North,20.7,24.2,N/A,,Overcast,350,2013-01-12 08:35:00
2:55 AM,8.6,5.0,85,29.54,2.5,NNW,15.0,-,N/A,,Overcast,340,2013-01-12 08:55:00
3:15 AM,8.6,3.2,79,29.55,2.0,NNW,16.1,-,N/A,,Overcast,340,2013-01-12 09:15:00
3:35 AM,8.6,5.0,85,29.56,2.0,NNW,16.1,-,N/A,,Overcast,340,2013-01-12 09:35:00
3:55 AM,8.6,5.0,85,29.56,2.0,NNW,19.6,25.3,N/A,,Overcast,330,2013-01-12 09:55:00
4:15 AM,8.6,5.0,85,29.57,1.8,NNW,17.3,25.3,N/A,,Overcast,330,2013-01-12 10:15:00
4:35 AM,8.6,5.0,85,29.58,1.5,NNW,16.1,-,N/A,,Overcast,330,2013-01-12 10:35:00
4:55 AM,6.8,3.2,85,29.59,1.2,NNW,17.3,-,N/A,,Overcast,330,2013-01-12 10:55:00
5:15 AM,6.8,1.4,79,29.61,1.2,NW,20.7,-,N/A,,Overcast,320,2013-01-12 11:15:00
5:35 AM,6.8,3.2,85,29.62,1.2,NW,17.3,-,N/A,,Overcast,320,2013-01-12 11:35:00
5:55 AM,6.8,1.4,79,29.64,1.2,NW,18.4,-,N/A,,Overcast,320,2013-01-12 11:55:00
6:15 AM,5.0,1.4,85,29.66,1.2,NW,19.6,-,N/A,,Overcast,320,2013-01-12 12:15:00
6:35 AM,5.0,1.4,85,29.67,1.5,NW,20.7,24.2,N/A,,Overcast,320,2013-01-12 12:35:00
6:55 AM,5.0,1.4,85,29.69,1.8,NW,17.3,-,N/A,,Overcast,320,2013-01-12 12:55:00
7:15 AM,3.2,1.4,92,29.70,2.0,NW,18.4,-,N/A,,Overcast,320,2013-01-12 13:15:00
7:35 AM,3.2,1.4,92,29.72,3.0,NW,18.4,-,N/A,,Overcast,310,2013-01-12 13:35:00
7:55 AM,3.2,-0.4,85,29.74,4.0,NW,19.6,-,N/A,,Overcast,320,2013-01-12 13:55:00
8:15 AM,3.2,-2.2,78,29.76,7.0,NW,18.4,-,N/A,,Scattered Clouds,320,2013-01-12 14:15:00
8:35 AM,1.4,-0.4,92,29.77,7.0,NW,16.1,-,N/A,,Clear,320,2013-01-12 14:35:00
8:55 AM,1.4,-2.2,85,29.78,9.0,NW,17.3,21.9,N/A,,Clear,320,2013-01-12 14:55:00
9:15 AM,1.4,-2.2,85,29.79,5.0,NW,19.6,26.5,N/A,,Clear,320,2013-01-12 15:15:00
9:55 AM,1.4,-2.2,85,29.81,7.0,NW,17.3,-,N/A,,Clear,310,2013-01-12 15:55:00
10:15 AM,1.4,-4.0,78,29.82,9.0,NW,20.7,-,N/A,,Clear,320,2013-01-12 16:15:00
10:35 AM,1.4,-4.0,78,29.84,10.0,NW,20.7,-,N/A,,Clear,320,2013-01-12 16:35:00
10:55 AM,-0.4,-5.8,78,29.86,10.0,NW,18.4,-,N/A,,Clear,320,2013-01-12 16:55:00
11:15 AM,-0.4,-4.0,85,29.86,10.0,NW,17.3,-,N/A,,Clear,320,2013-01-12 17:15:00
11:55 AM,1.4,-2.2,85,29.88,10.0,NW,17.3,-,N/A,,Clear,320,2013-01-12 17:55:00
12:15 PM,1.4,-5.8,72,29.88,10.0,NNW,18.4,-,N/A,,Clear,330,2013-01-12 18:15:00
12:55 PM,1.4,-4.0,78,29.89,10.0,NW,17.3,-,N/A,,Clear,320,2013-01-12 18:55:00
1:35 PM,1.4,-5.8,72,29.92,10.0,WNW,11.5,-,N/A,,Clear,300,2013-01-12 19:35:00
1:55 PM,1.4,-4.0,78,29.93,10.0,NW,15.0,-,N/A,,Partly Cloudy,310,2013-01-12 19:55:00
2:15 PM,-0.4,-7.6,72,29.94,8.0,WNW,11.5,-,N/A,,Scattered Clouds,290,2013-01-12 20:15:00
2:35 PM,-0.4,-5.8,78,29.95,10.0,WNW,13.8,-,N/A,,Partly Cloudy,290,2013-01-12 20:35:00
2:55 PM,-0.4,-5.8,78,29.96,10.0,WNW,13.8,-,N/A,,Clear,300,2013-01-12 20:55:00
3:15 PM,-2.2,-7.6,78,29.97,10.0,WNW,16.1,19.6,N/A,,Clear,300,2013-01-12 21:15:00
3:35 PM,-2.2,-9.4,71,29.99,10.0,WNW,15.0,-,N/A,,Clear,300,2013-01-12 21:35:00
3:55 PM,-4.0,-7.6,85,30.00,10.0,WNW,15.0,-,N/A,,Clear,300,2013-01-12 21:55:00
4:15 PM,-5.8,-9.4,84,30.00,10.0,NW,13.8,-,N/A,,Clear,310,2013-01-12 22:15:00
4:35 PM,-5.8,-9.4,84,30.00,10.0,NW,16.1,-,N/A,,Clear,310,2013-01-12 22:35:00
4:55 PM,-5.8,-9.4,84,30.01,10.0,NW,13.8,-,N/A,,Clear,310,2013-01-12 22:55:00
5:15 PM,-5.8,-11.2,77,30.02,10.0,NW,15.0,-,N/A,,Clear,310,2013-01-12 23:15:00
5:35 PM,-5.8,-11.2,77,30.02,10.0,NW,15.0,-,N/A,,Clear,320,2013-01-12 23:35:00
5:55 PM,-7.6,-11.2,84,30.03,10.0,NW,12.7,-,N/A,,Clear,310,2013-01-12 23:55:00
6:15 PM,-7.6,-9.4,92,30.05,10.0,NW,11.5,-,N/A,,Clear,320,2013-01-13 00:15:00
6:35 PM,-7.6,-13.0,77,30.05,10.0,NW,9.2,-,N/A,,Clear,310,2013-01-13 00:35:00
7:15 PM,-7.6,-13.0,77,30.06,10.0,NW,12.7,-,N/A,,Clear,310,2013-01-13 01:15:00
7:35 PM,-7.6,-9.4,92,30.06,10.0,NW,15.0,-,N/A,,Clear,320,2013-01-13 01:35:00
7:55 PM,-7.6,-11.2,84,30.06,10.0,NW,13.8,-,N/A,,Mostly Cloudy,320,2013-01-13 01:55:00
8:15 PM,-7.6,-9.4,92,30.07,10.0,NW,13.8,-,N/A,,Overcast,320,2013-01-13 02:15:00
8:35 PM,-7.6,-11.2,84,30.07,10.0,NW,15.0,-,N/A,,Overcast,320,2013-01-13 02:35:00
8:55 PM,-7.6,-9.4,92,30.08,10.0,NNW,13.8,-,N/A,,Scattered Clouds,330,2013-01-13 02:55:00
9:15 PM,-7.6,-11.2,84,30.08,10.0,NW,11.5,-,N/A,,Clear,320,2013-01-13 03:15:00
9:35 PM,-7.6,-9.4,92,30.09,10.0,NNW,11.5,-,N/A,,Clear,330,2013-01-13 03:35:00
9:55 PM,-7.6,-13.0,77,30.10,10.0,NW,10.4,-,N/A,,Clear,320,2013-01-13 03:55:00
10:15 PM,-7.6,-11.2,84,30.11,10.0,NNW,9.2,-,N/A,,Clear,330,2013-01-13 04:15:00
10:35 PM,-7.6,-11.2,84,30.11,10.0,NW,8.1,-,N/A,,Clear,310,2013-01-13 04:35:00
10:55 PM,-9.4,-13.0,84,30.13,10.0,WNW,5.8,-,N/A,,Clear,300,2013-01-13 04:55:00
11:15 PM,-9.4,-13.0,84,30.12,10.0,NW,5.8,-,N/A,,Clear,310,2013-01-13 05:15:00
11:35 PM,-9.4,-11.2,92,30.12,10.0,NNW,8.1,-,N/A,,Clear,330,2013-01-13 05:35:00
11:55 PM,-9.4,-13.0,84,30.12,10.0,NNW,8.1,-,N/A,,Clear,330,2013-01-13 05:55:00